Grenchen, Switzerland

11:25 AM CEST on June 21, 2018 (GMT +0200)
Grenchen

Weather History for LSZG - September, 2014

Change the Weather History Date:

Thursday, September 18, 2014

  Actual Average (LSZB) Record (LSZB)
Temperature  
Mean Temperature 66 °F -  
Max Temperature 73 °F 59 °F 77 °F (2003)
Min Temperature 59 °F 43 °F 33 °F (2001)
Cooling Degree Days 1    
Growing Degree Days 16 (Base 50)    
Moisture  
Dew Point 59 °F    
Average Humidity 82    
Maximum Humidity 94    
Minimum Humidity 47    
Precipitation  
Precipitation 0.00 in - - ()
Sea Level Pressure  
Sea Level Pressure 29.91 in    
Wind  
Wind Speed 2 mph ()    
Max Wind Speed 6 mph    
Max Gust Speed -    
Visibility 6.2 miles    
Events Rain    
Averages and records for this station are not official NWS values.
T = Trace of Precipitation, MM = Missing Value Source: Averaged Metar Reports

Daily Weather History Graph

Daily Weather History Graph

Search for Another Location

Airport or City:

Astronomy

Sep. 18, 2014 Rise Set
Actual Time 7:11 AM CEST 7:36 PM CEST
Civil Twilight 6:40 AM CEST 8:07 PM CEST
Nautical Twilight 6:04 AM CEST 8:43 PM CEST
Astronomical Twilight 5:26 AM CEST 9:20 PM CEST
Moon 1:33 AM CEST (9/18) 4:31 PM CEST (9/18)
Length of Visible Light 13h 26m
Length of Day
12h 25m
Waning Crescent, 28% of the Moon is Illuminated
Sep 18
Waning Crescent
Sep 24
New
Oct 1
First Quarter
Oct 8
Full
Oct 15
Last Quarter

Hourly Weather History & Observations

Time (CEST) Temp. Dew Point Humidity Pressure Visibility Wind Dir Wind Speed Gust Speed Precip Events Conditions
12:00 AM 62 °F 59 °F 85% 29.88 in - ENE 2.3 mph - -  
12:20 AM 62.6 °F 59.0 °F 88% 29.89 in - NE 3.5 mph - N/A   Clear
12:50 AM 62.6 °F 59.0 °F 88% 29.92 in - WSW 4.6 mph - N/A   Clear
1:00 AM 63 °F 59 °F 84% 29.89 in - NW 2.3 mph - -  
1:20 AM 62.6 °F 59.0 °F 88% 29.92 in 6.2 mi Variable 2.3 mph - N/A   Unknown
1:50 AM 62.6 °F 59.0 °F 88% 29.92 in - Variable 2.3 mph - N/A   Clear
2:00 AM 62 °F 59 °F 88% 29.90 in - NNE 1.2 mph - -  
2:20 AM 62.6 °F 59.0 °F 88% 29.92 in 6.2 mi Variable 1.2 mph - N/A   Unknown
2:50 AM 60.8 °F 59.0 °F 94% 29.92 in - West 1.2 mph - N/A   Clear
3:00 AM 62 °F 59 °F 86% 29.90 in - SSW 1.2 mph - -  
3:20 AM 60.8 °F 59.0 °F 94% 29.92 in - SSE 1.2 mph - N/A   Clear
3:50 AM 60.8 °F 59.0 °F 94% 29.92 in - SW 3.5 mph - N/A   Clear
4:00 AM 61 °F 59 °F 89% 29.91 in - West 3.5 mph - -  
4:20 AM 60.8 °F 59.0 °F 94% 29.92 in - Variable 1.2 mph - N/A   Clear
4:50 AM 60.8 °F 59.0 °F 94% 29.89 in - Calm Calm - N/A   Clear
5:00 AM 61 °F 59 °F 91% 29.89 in - NNW 2.3 mph - -  
5:20 AM 60.8 °F 59.0 °F 94% 29.92 in 6.2 mi Variable 1.2 mph - N/A Rain Light Rain Showers
5:50 AM 60.8 °F 59.0 °F 94% 29.89 in - Variable 1.2 mph - N/A   Clear
6:00 AM 60 °F 59 °F 94% 29.89 in - East 2.3 mph - -  
6:20 AM 60.8 °F 59.0 °F 94% 29.89 in 5.6 mi Variable 1.2 mph - N/A   Unknown
6:50 AM 60.8 °F 59.0 °F 94% 29.92 in 6.2 mi Calm Calm - N/A   Unknown
7:00 AM 60 °F 59 °F 94% 29.90 in - SW 1.2 mph - -  
7:20 AM 60.8 °F 59.0 °F 94% 29.89 in - East 3.5 mph - N/A   Clear
7:50 AM 60.8 °F 59.0 °F 94% 29.92 in - Variable 2.3 mph - N/A   Clear
8:00 AM 61 °F 60 °F 94% 29.90 in - North 2.3 mph - -  
8:20 AM 60.8 °F 59.0 °F 94% 29.89 in - Variable 3.5 mph - N/A   Clear
8:50 AM 62.6 °F 60.8 °F 94% 29.89 in - Variable 1.2 mph - N/A   Clear
9:00 AM 63 °F 60 °F 88% 29.89 in - North 1.2 mph - -  
9:20 AM 64.4 °F 60.8 °F 88% 29.92 in 6.2 mi Variable 1.2 mph - N/A   Mostly Cloudy
9:50 AM 64.4 °F 60.8 °F 88% 29.92 in 6.2 mi Variable 1.2 mph - N/A   Mostly Cloudy
10:00 AM 64 °F 60 °F 82% 29.91 in - ESE 2.3 mph - -  
10:20 AM 64.4 °F 60.8 °F 88% 29.92 in 6.2 mi Variable 2.3 mph - N/A   Mostly Cloudy
10:50 AM 64.4 °F 59.0 °F 83% 29.92 in 6.2 mi Variable 1.2 mph - N/A   Mostly Cloudy
11:00 AM 65 °F 60 °F 77% 29.91 in - SSE 1.2 mph - -  
11:20 AM 66.2 °F 59.0 °F 78% 29.92 in 6.2 mi Variable 2.3 mph - N/A Rain Light Rain Showers
11:50 AM 66.2 °F 60.8 °F 83% 29.92 in 6.2 mi SW 3.5 mph - N/A Rain Light Rain Showers
12:00 PM 66 °F 60 °F 77% 29.91 in - WSW 3.5 mph - -  
12:20 PM 66.2 °F 60.8 °F 83% 29.92 in 6.2 mi Variable 3.5 mph - N/A   Mostly Cloudy
12:50 PM 66.2 °F 60.8 °F 83% 29.92 in 6.2 mi SW 4.6 mph - N/A   Mostly Cloudy
1:00 PM 67 °F 62 °F 79% 29.91 in - SW 4.6 mph - -  
1:20 PM 66.2 °F 60.8 °F 83% 29.92 in 6.2 mi SW 3.5 mph - N/A   Mostly Cloudy
1:50 PM 68.0 °F 60.8 °F 78% 29.92 in 6.2 mi Variable 3.5 mph - N/A   Mostly Cloudy
2:00 PM 67 °F 61 °F 75% 29.91 in - West 3.5 mph - -  
2:20 PM 68.0 °F 60.8 °F 78% 29.92 in 6.2 mi WSW 5.8 mph - N/A   Mostly Cloudy
2:50 PM 68.0 °F 60.8 °F 78% 29.92 in 6.2 mi WSW 3.5 mph - N/A   Mostly Cloudy
3:00 PM 69 °F 61 °F 68% 29.90 in - WSW 3.5 mph - -  
3:20 PM 69.8 °F 60.8 °F 73% 29.92 in 6.2 mi Variable 3.5 mph - N/A   Mostly Cloudy
3:50 PM 69.8 °F 60.8 °F 73% 29.92 in 6.2 mi SW 4.6 mph - N/A   Mostly Cloudy
4:00 PM 72 °F 61 °F 59% 29.89 in - SSW 3.5 mph - -  
4:20 PM 71.6 °F 59.0 °F 64% 29.92 in 6.2 mi Variable 2.3 mph - N/A   Mostly Cloudy
4:50 PM 71.6 °F 59.0 °F 64% 29.92 in 6.2 mi Variable 2.3 mph - N/A   Scattered Clouds
5:00 PM 72 °F 58 °F 51% 29.88 in - WNW 1.2 mph - -  
5:20 PM 73.4 °F 57.2 °F 57% 29.92 in 6.2 mi Variable 2.3 mph - N/A   Mostly Cloudy
5:50 PM 73.4 °F 57.2 °F 57% 29.92 in - Variable 3.5 mph - N/A   Clear
6:00 PM 73 °F 57 °F 47% 29.88 in - SE 2.3 mph - -  
6:20 PM 73.4 °F 57.2 °F 57% 29.92 in - Variable 2.3 mph - N/A   Clear
6:50 PM 71.6 °F 57.2 °F 60% 29.92 in - Variable 1.2 mph - N/A   Clear
7:00 PM 69 °F 58 °F 60% 29.89 in - NE 2.3 mph - -  
7:20 PM 68.0 °F 59.0 °F 73% 29.92 in - Variable 2.3 mph - N/A   Clear
7:50 PM 66.2 °F 59.0 °F 78% 29.92 in - Variable 2.3 mph - N/A   Clear
8:00 PM 64 °F 59 °F 77% 29.91 in - ENE 2.3 mph - -  
8:20 PM 62.6 °F 59.0 °F 88% 29.95 in - Variable 1.2 mph - N/A   Clear
8:50 PM 62.6 °F 57.2 °F 82% 29.95 in - Variable 2.3 mph - N/A   Clear
9:00 PM 61 °F 58 °F 85% 29.94 in - East 2.3 mph - -  
9:20 PM 59.0 °F 55.4 °F 88% 29.95 in - ENE 3.5 mph - N/A   Clear
9:50 PM 60.8 °F 59.0 °F 94% 29.95 in 6.2 mi Variable 1.2 mph - N/A   Unknown
10:00 PM 61 °F 58 °F 85% 29.94 in - NW 2.3 mph - -  
10:20 PM 59.0 °F 57.2 °F 94% 29.95 in - Variable 1.2 mph - N/A   Clear
10:50 PM 60.8 °F 57.2 °F 88% 29.95 in - West 2.3 mph - N/A   Clear
11:00 PM 60 °F 58 °F 90% 29.95 in - SSW 2.3 mph - -  
11:20 PM 60.8 °F 59.0 °F 94% 29.95 in - Variable 2.3 mph - N/A   Clear
11:50 PM 60.8 °F 59.0 °F 94% 29.95 in - Variable 3.5 mph - N/A   Clear